Lapse_Rate
4.9 4.8 4.9 4.7 4.6 4.3 4.2 4.2 4.1 3.9 4.0 4.3 4.3 4.1 4.4 4.5 4.7 4.8 4.9 5.2 5.2 5.5 5.4 4.8 4.9 5.2 5.5 5.8 5.9 6.1 6.1 6.2 6.2 6.4 6.8 6.7 6.5 6.4 6.2 6.3 6.5 6.5 6.3 6.2 6.5
4.9 4.7 4.7 4.5 4.1 3.8 3.6 3.5 3.2 3.3 3.4 3.4 3.8 4.0 3.7 3.9 4.3 4.5 5.6 5.1 5.1 5.4 5.5 5.4 5.2 5.0 4.9 5.4 5.5 6.1 6.0 6.2 6.2 6.5 6.7 6.9 6.8 6.4 6.3 6.4 6.3 6.5 6.2 6.2 6.5
4.6 4.4 4.0 3.8 3.6 3.3 2.9 2.8 2.8 2.9 2.8 2.7 3.0 3.5 3.6 3.7 3.8 4.9 5.0 5.0 5.2 5.3 5.6 5.3 5.7 5.7 5.1 5.2 4.9 5.7 6.1 5.9 6.1 6.3 6.6 6.8 6.8 6.3 6.6 6.7 6.6 6.5 6.4 6.2 6.3
4.2 3.8 3.4 3.3 3.0 2.7 2.7 2.6 2.6 2.7 2.6 2.6 2.6 2.7 2.8 3.0 3.2 3.6 4.9 5.3 5.1 5.5 5.3 5.2 5.6 5.5 5.4 5.1 5.1 5.4 6.6 6.0 6.3 6.2 6.6 6.9 6.5 6.1 6.4 6.8 6.6 6.6 6.4 6.2 6.4
3.9 3.5 3.1 2.8 2.7 2.6 2.5 2.5 2.6 2.6 2.4 2.4 2.4 2.2 2.2 2.1 2.9 3.3 4.8 5.4 5.4 5.7 5.5 5.5 5.7 5.7 5.6 5.7 5.6 5.1 6.4 5.8 6.5 6.5 6.6 6.8 6.5 6.1 6.4 6.7 6.6 6.5 6.5 6.5 6.5
3.4 3.2 2.9 2.6 2.5 2.5 2.5 2.4 2.5 2.5 2.4 2.4 2.2 2.1 1.9 2.0 3.0 3.1 3.5 4.0 5.0 5.6 5.4 5.4 5.7 5.6 5.7 5.6 5.6 5.1 6.2 5.6 6.1 6.6 6.7 6.7 6.5 6.5 6.4 6.4 6.5 6.4 6.5 6.5 6.5
3.2 2.9 2.7 2.5 2.5 2.4 2.4 2.3 2.2 2.3 2.3 2.1 2.0 1.9 1.8 2.3 1.9 2.9 3.7 4.2 5.1 5.3 5.6 5.8 5.5 5.3 5.8 5.5 5.3 5.6 5.8 5.6 6.0 6.2 6.7 6.8 6.7 6.6 6.9 6.5 6.5 6.6 6.6 6.6 6.6
3.2 2.8 2.6 2.6 2.5 2.4 2.3 2.2 2.3 2.3 2.1 1.9 1.8 1.6 2.1 2.0 2.8 4.2 4.9 5.7 5.8 5.6 5.4 5.6 5.5 5.3 5.5 5.3 5.4 5.4 5.5 5.5 5.4 6.1 6.7 6.6 6.7 6.7 7.0 6.8 6.8 6.8 6.7 6.7 6.7
3.1 2.7 2.7 2.7 2.5 2.4 2.3 2.2 2.4 2.3 2.0 1.8 1.6 1.8 2.6 3.4 4.5 5.1 5.6 6.7 6.4 6.3 5.9 6.1 5.2 5.1 5.3 5.3 5.5 5.4 5.4 5.2 5.6 5.9 6.3 6.4 6.7 6.3 7.0 6.7 6.4 6.8 6.8 6.8 6.8
3.3 2.9 2.8 2.7 2.5 2.3 2.4 2.3 2.3 2.2 2.1 2.1 2.4 2.7 4.2 4.7 5.4 6.5 6.8 7.0 6.2 6.3 6.2 5.8 5.3 4.9 4.8 5.1 5.5 5.1 5.4 5.2 5.2 5.9 5.7 6.4 6.4 6.6 6.8 6.7 6.5 6.6 6.7 6.8 6.8
3.2 3.0 2.8 2.8 2.5 2.5 2.5 2.4 2.1 2.6 2.3 2.4 3.0 4.5 5.6 6.3 7.0 7.4 7.1 7.0 6.8 6.0 6.1 5.7 5.9 5.2 5.9 4.8 5.2 5.6 5.5 5.6 5.3 5.8 5.7 5.7 6.4 6.9 6.6 6.5 6.4 6.6 6.3 6.7 6.5
3.1 2.9 2.9 2.9 2.8 2.7 2.6 2.6 2.5 2.5 4.2 3.1 5.0 6.1 6.8 7.3 7.6 7.4 7.2 7.1 7.1 6.5 6.5 6.1 5.9 5.5 5.1 4.6 4.8 5.1 5.4 5.6 5.7 5.8 5.9 5.8 6.0 6.5 6.5 6.3 6.4 6.6 6.4 6.2 5.9
3.2 3.1 3.0 3.0 3.1 2.8 2.9 2.8 2.8 3.2 4.2 5.0 6.0 6.9 7.3 7.4 7.5 7.5 7.1 7.1 7.1 6.6 6.1 6.2 6.2 5.9 5.2 4.9 4.9 5.0 5.1 5.5 5.6 5.5 5.8 5.9 5.5 5.7 6.4 6.6 6.4 6.0 6.2 6.3 5.8
3.5 3.4 3.3 3.4 3.3 3.1 3.3 3.5 4.0 4.1 4.9 5.9 6.7 7.3 7.6 7.5 7.8 7.6 7.2 7.2 6.7 6.8 6.3 6.3 5.8 5.6 5.4 5.5 4.9 4.9 5.3 5.5 5.5 5.5 5.5 5.6 5.7 5.7 6.2 6.3 6.3 6.2 5.9 6.0 6.3
3.7 3.6 3.7 3.5 3.6 3.7 4.0 4.4 5.2 5.4 3.8 6.6 7.3 7.4 7.6 7.5 7.7 7.5 7.1 7.1 6.6 6.6 6.4 6.2 6.4 6.3 5.5 6.0 5.0 4.5 5.1 5.3 5.5 5.5 5.5 5.5 5.5 5.6 5.8 6.0 6.2 6.0 5.7 5.6 5.9
3.8 4.0 3.9 3.7 3.9 4.4 4.8 5.6 6.0 6.3 4.9 7.4 7.5 7.7 7.6 7.6 7.6 7.5 7.2 7.0 6.8 6.4 6.0 6.2 6.2 5.5 6.2 6.1 5.4 4.6 5.3 5.2 5.3 5.3 5.0 5.0 5.3 5.7 5.8 5.9 6.4 6.0 5.9 6.0 6.1
4.1 4.1 4.0 4.1 4.5 5.0 5.6 6.2 6.3 6.6 7.2 7.5 7.7 7.7 7.6 7.6 7.6 7.2 7.3 7.1 6.9 6.3 6.1 6.6 6.1 5.6 5.6 5.4 5.2 4.5 4.6 4.9 5.0 4.9 5.0 5.0 5.2 5.4 5.5 6.4 6.5 6.6 6.3 6.0 6.7
4.5 4.2 4.2 4.4 5.0 5.6 6.1 6.5 6.8 6.9 7.0 7.2 7.5 7.9 7.7 7.4 7.2 7.3 7.3 7.1 6.5 6.0 6.3 6.2 5.9 5.4 5.1 5.2 4.7 4.6 4.8 4.6 5.1 5.1 4.7 5.1 5.0 5.5 5.5 6.1 6.3 6.4 6.0 5.7 5.9
4.9 4.5 4.5 4.9 5.5 6.1 6.4 6.6 7.0 6.8 6.7 6.9 7.4 7.8 7.7 7.2 7.0 7.0 7.2 6.9 6.7 6.1 6.1 6.0 5.8 5.3 5.4 5.6 4.9 4.8 5.3 5.1 4.8 4.7 5.1 5.1 5.0 5.1 5.6 6.0 6.0 5.8 5.5 5.5 5.6
5.1 4.6 4.8 5.4 6.1 6.4 6.7 6.9 6.8 6.7 6.4 6.7 7.0 7.2 7.3 7.1 6.8 6.8 7.0 6.7 6.4 6.3 6.0 5.8 5.7 5.7 5.5 5.3 5.1 5.5 5.8 5.6 5.1 5.1 4.9 4.9 5.1 5.8 6.0 6.2 6.1 5.9 5.7 5.6 5.5
5.0 4.9 5.3 5.8 6.3 6.7 6.9 7.2 7.0 6.8 6.7 6.6 6.8 6.9 7.1 6.9 6.7 6.4 6.7 7.0 6.3 6.2 6.0 5.9 5.6 5.7 6.2 5.9 5.6 5.7 5.8 5.9 5.8 5.5 4.9 5.2 5.8 6.6 6.4 6.4 6.3 6.1 5.9 6.0 5.9
5.0 5.2 5.5 6.2 6.5 6.9 7.1 7.1 7.0 6.9 6.7 6.7 6.8 7.1 7.1 7.0 6.7 6.6 6.8 6.8 6.3 6.4 6.4 5.8 6.1 6.0 5.9 6.3 6.5 6.3 6.1 6.0 6.3 5.7 6.1 5.9 6.2 6.6 6.2 6.1 6.1 6.0 5.9 5.9 5.8
5.3 5.5 5.9 6.4 6.7 6.9 7.1 7.1 7.1 6.8 6.7 6.6 6.8 6.7 6.9 6.7 6.6 6.5 6.4 6.8 6.4 6.4 6.6 6.7 6.6 6.4 5.5 6.3 6.3 6.5 6.7 6.5 6.4 6.4 6.1 6.4 6.4 6.6 6.7 6.6 6.5 6.7 6.5 6.0 5.9
5.2 5.7 6.1 6.6 6.8 7.0 7.1 7.2 6.9 6.8 6.7 6.7 6.7 6.7 6.8 6.5 6.5 6.7 6.4 6.5 6.4 6.8 6.7 6.4 6.7 6.6 5.9 5.7 5.8 5.7 6.3 6.5 6.3 6.7 6.7 6.7 7.1 6.7 6.9 6.8 6.5 6.7 6.7 6.6 6.5
5.3 6.0 6.2 6.7 6.8 7.0 7.1 7.1 6.9 6.7 6.7 6.5 6.6 6.5 6.5 6.6 6.8 6.4 6.4 6.4 6.2 6.5 6.6 6.5 6.7 6.6 6.1 5.7 5.6 5.4 5.7 5.8 5.6 6.0 6.5 6.3 6.7 6.5 6.7 6.5 6.4 6.5 6.7 6.3 6.2
5.3 5.9 6.5 6.9 7.0 7.0 7.0 6.9 6.7 6.5 6.6 6.5 6.2 6.4 6.5 6.4 6.6 6.3 6.1 6.1 6.0 6.1 6.2 6.4 6.6 6.8 6.6 5.9 5.6 5.4 5.3 5.3 5.4 5.2 5.0 5.4 5.9 6.2 6.5 6.6 6.6 6.4 6.2 6.0 6.1
5.4 5.8 6.4 7.0 7.1 6.9 6.8 6.7 6.6 6.4 6.6 6.6 6.5 6.4 6.4 6.4 6.4 6.7 6.4 6.1 6.0 6.1 6.0 6.4 6.4 6.3 6.5 6.6 6.2 6.1 6.3 6.0 6.0 5.7 5.4 5.2 6.5 5.6 5.9 6.3 6.6 6.1 6.2 6.1 5.9
Wind_Speed
4 5 5 7 7 8 8 10 11 12 13 14 14 17 19 20 21 4 5 5 2 5 8 5 4 5 3 4 3 2 1 3 4 5 5 4 4 5 3 6 3 5 5 9 13
3 5 5 6 6 7 9 9 10 11 14 15 14 15 17 19 4 7 9 7 5 1 3 3 4 5 4 4 3 4 3 5 2 4 5 4 6 6 4 5 4 4 5 21 14
1 5 7 5 6 8 9 10 10 11 12 14 17 18 17 14 5 5 3 9 6 2 3 2 3 2 6 4 5 5 5 2 2 2 1 3 5 4 9 3 7 11 15 15 14
1 4 8 6 7 9 10 11 10 11 13 14 14 17 22 1 5 3 3 3 5 5 4 4 4 3 5 7 5 4 7 5 3 3 2 4 1 4 6 5 9 17 18 15 14
4 3 6 6 8 10 10 9 9 11 12 13 14 15 6 3 9 8 6 6 5 4 7 6 8 6 11 6 5 8 4 4 4 3 2 1 2 4 2 5 15 15 15 17 11
6 5 5 5 8 8 8 9 11 12 13 13 13 12 0 6 6 8 7 4 7 7 7 7 6 6 5 10 16 7 9 12 4 5 1 3 2 2 2 9 13 16 16 15 12
8 8 6 6 8 9 9 10 13 14 14 14 12 5 4 13 7 7 5 3 3 4 6 6 3 6 7 5 8 4 4 13 10 4 4 5 4 5 8 9 14 11 12 14 12
11 9 8 6 7 8 10 12 16 15 14 13 11 1 6 7 14 11 12 6 6 7 5 4 4 1 7 2 7 6 4 13 15 7 4 6 5 6 14 13 11 12 11 14 13
11 11 8 6 7 9 11 16 17 15 14 13 3 3 8 11 2 8 8 8 4 5 7 5 3 7 8 6 13 11 12 17 12 12 6 6 5 6 15 13 12 11 14 14 13
10 11 7 4 6 9 13 19 15 11 8 3 2 3 5 5 5 7 4 6 7 5 8 6 4 9 16 10 12 19 21 16 19 17 13 9 8 5 12 11 13 12 12 15 13
9 9 6 3 4 7 7 4 5 4 4 4 4 4 10 7 7 4 7 2 3 5 10 5 6 11 26 18 18 16 19 12 16 3 12 12 15 7 8 7 10 11 12 13 12
9 8 6 2 2 4 2 3 2 2 8 7 11 10 12 6 8 10 4 5 5 11 10 5 11 3 3 6 11 23 22 27 5 6 6 14 11 2 3 4 9 14 10 11 8
10 9 5 2 1 2 1 1 3 1 3 7 5 4 4 2 5 11 6 5 4 6 10 14 2 12 2 9 9 20 23 23 14 4 3 13 6 5 5 4 6 9 10 10 13
12 8 5 3 2 1 1 6 5 1 4 6 4 4 4 3 6 5 6 6 4 7 7 8 7 9 3 5 2 9 10 14 14 17 10 7 9 10 16 6 4 6 13 12 12
11 8 6 2 2 2 4 9 4 4 4 5 5 3 5 3 6 4 3 3 4 5 3 6 11 11 8 8 1 8 23 18 13 19 13 8 4 5 16 15 6 7 11 12 12
10 8 5 2 2 2 8 4 4 6 4 6 5 6 5 4 3 5 4 2 4 5 5 6 3 4 5 5 7 11 13 10 7 5 8 8 11 8 8 11 9 8 7 14 14
12 7 1 2 1 11 6 4 5 4 4 8 4 5 7 5 4 2 3 6 3 3 2 3 1 3 6 5 3 1 6 2 3 3 2 14 9 3 3 5 11 16 12 9 15
12 6 6 4 10 8 3 5 4 3 4 4 4 8 3 5 3 2 2 3 3 3 0 1 2 2 5 2 5 4 2 3 2 4 5 12 6 2 4 4 16 15 14 12 11
11 2 2 7 12 3 5 4 6 5 4 5 8 4 5 5 2 5 1 3 3 1 2 2 3 0 2 2 6 7 0 5 3 2 4 4 1 2 6 8 11 15 14 12 11
3 2 2 12 9 4 4 3 3 2 3 2 3 1 3 5 5 5 4 2 5 4 2 2 3 2 2 3 1 3 8 1 3 3 3 3 1 3 7 9 10 11 12 10 11
3 3 3 10 3 4 3 3 2 1 2 3 1 3 3 3 3 3 4 4 5 7 2 2 2 3 2 2 2 2 2 4 4 1 2 2 4 2 8 10 13 10 10 12 12
3 2 3 4 4 1 1 2 3 4 1 3 2 4 3 3 4 2 4 4 7 1 2 3 1 2 2 1 3 2 2 3 3 3 2 1 3 4 1 7 12 12 10 10 10
3 1 2 3 2 2 2 3 3 4 4 2 3 3 1 2 3 4 3 5 5 4 3 1 3 2 3 2 2 1 1 1 0 3 4 4 3 4 7 7 9 14 12 11 12
3 2 4 3 1 2 2 2 3 5 5 1 2 3 2 3 4 4 4 3 4 5 10 2 1 2 1 1 3 4 2 2 2 2 2 3 3 2 5 8 8 11 13 14 13
3 2 3 2 2 3 2 2 3 3 2 4 3 3 2 3 4 3 1 4 3 5 6 3 3 3 2 5 2 1 2 3 2 1 3 3 3 5 11 12 13 11 13 15 15
4 4 0 2 1 2 3 4 5 4 3 2 2 4 3 3 2 3 4 4 2 4 4 5 0 2 1 4 5 2 4 6 5 3 4 3 5 1 4 9 9 13 16 16 16
1 2 4 2 1 3 4 4 3 3 2 2 2 3 3 2 2 4 3 6 4 4 3 4 1 2 3 3 4 4 6 7 5 4 4 4 4 3 3 8 14 15 16 16 15
Wind_Direction
348 3 8 7 1 357 355 351 349 347 347 348 348 342 337 334 333 300 244 247 237 339 333 306 283 286 268 266 215 129 95 245 226 162 228 202 128 148 120 101 53 352 161 159 140
338 327 331 348 354 346 342 340 340 339 338 339 341 340 336 335 305 263 245 247 262 319 353 20 318 322 262 233 227 156 168 230 234 210 207 176 136 160 120 146 57 61 32 141 134
282 300 329 315 334 339 336 326 332 336 336 338 336 335 335 335 313 253 336 222 235 242 125 107 313 278 227 205 214 199 201 206 248 250 120 143 127 179 150 209 192 162 146 142 144
268 299 320 302 314 323 324 320 321 328 333 335 337 335 331 18 277 1 331 246 248 229 150 162 195 230 217 202 212 218 235 248 213 260 126 124 314 156 187 212 155 154 159 153 157
265 274 309 301 311 321 326 315 314 320 322 327 332 337 358 351 250 301 267 270 222 229 218 193 197 209 218 190 208 219 231 242 185 186 132 78 140 176 116 86 121 138 156 163 163
265 262 288 299 311 313 319 315 308 309 311 319 330 338 267 259 263 247 246 262 247 217 229 210 202 233 262 220 202 201 218 250 241 211 181 152 165 156 132 132 128 146 164 168 171
259 263 265 287 305 303 313 317 312 302 304 312 324 319 244 246 289 284 233 252 245 242 236 228 239 243 175 184 222 207 174 250 240 232 219 151 260 218 148 159 145 160 168 173 183
250 256 257 278 298 296 303 307 307 298 297 302 309 266 252 255 267 269 268 255 253 247 255 236 223 299 261 151 148 180 153 213 232 182 249 141 230 220 160 160 166 165 170 178 191
242 240 242 264 291 299 307 304 297 293 295 295 323 190 267 305 297 256 207 231 250 261 241 244 260 180 295 198 196 193 205 207 221 201 178 184 222 221 173 175 170 175 172 179 188
231 225 228 252 291 309 312 298 287 292 305 205 212 349 284 324 326 305 286 229 245 288 255 198 235 189 229 262 216 198 213 198 207 198 201 184 245 215 175 170 179 178 180 176 186
219 210 208 233 290 318 339 352 16 352 15 241 244 251 297 298 288 271 258 276 236 254 235 192 210 212 215 246 318 225 208 200 201 215 180 199 207 216 184 169 172 183 181 182 178
195 188 179 196 283 331 16 50 112 238 306 251 255 259 262 274 293 295 140 192 185 240 237 224 223 23 201 242 289 286 213 208 199 158 199 192 217 227 284 179 181 181 182 175 136
170 165 169 168 29 17 68 51 350 84 297 300 254 249 253 173 255 272 171 195 245 262 247 246 265 143 65 47 305 289 220 195 197 146 42 152 198 173 259 245 149 186 174 153 147
153 157 144 118 35 309 56 326 354 80 57 289 320 287 303 277 269 236 208 195 240 243 245 251 185 153 172 89 13 297 220 204 155 169 182 218 196 203 217 241 149 125 131 129 115
145 138 132 64 234 59 309 331 344 54 23 280 299 298 289 244 307 305 263 202 251 266 340 239 172 191 205 222 38 280 332 222 169 179 175 200 157 159 186 220 171 163 136 120 115
133 129 127 351 54 336 331 352 40 44 270 320 316 337 347 278 266 291 359 121 272 269 245 259 130 151 189 150 188 318 300 169 180 149 199 176 194 214 202 195 168 141 156 134 125
125 115 117 49 288 331 336 45 34 117 327 307 312 331 330 277 300 14 30 321 241 68 308 240 336 194 126 109 90 29 309 153 151 185 154 160 172 250 233 249 177 160 148 137 122
123 102 61 60 345 341 53 50 82 231 261 311 315 314 282 337 306 342 323 310 245 234 231 191 270 299 168 170 158 112 310 338 233 165 141 150 191 212 11 18 123 131 132 123 122
126 50 49 334 347 53 71 57 205 211 225 319 326 351 312 326 353 359 317 293 286 237 263 115 242 295 139 197 152 138 254 295 292 22 96 144 98 301 78 77 111 129 134 135 140
102 76 356 334 350 59 76 237 239 225 299 236 302 291 307 309 3 22 329 238 299 335 12 353 318 32 305 119 292 171 156 94 8 14 58 58 307 216 189 163 145 145 139 137 130
64 67 277 343 50 49 142 241 300 193 48 292 275 285 281 334 305 298 270 302 1 339 287 82 358 310 278 50 122 120 201 52 108 108 53 94 253 21 190 172 163 163 156 148 145
99 62 323 16 55 43 204 247 302 256 115 268 258 244 220 273 303 285 297 265 360 49 290 146 262 227 93 27 59 276 300 211 156 186 185 247 278 9 334 173 156 156 147 145 142
100 132 336 81 121 283 254 286 258 275 221 255 275 262 279 265 293 216 241 296 15 8 354 73 254 163 115 36 50 172 277 42 276 77 204 155 244 20 66 116 148 144 150 152 152
96 59 336 48 305 169 259 257 292 239 263 208 262 272 264 275 202 281 317 309 339 357 325 201 292 344 103 6 101 179 221 213 110 100 176 247 165 166 147 147 154 159 156 161 162
41 223 178 248 283 185 230 299 278 286 267 204 288 251 303 303 301 222 303 296 334 0 336 350 345 11 353 338 217 196 190 156 141 199 160 249 204 192 195 185 175 163 159 167 172
131 136 354 167 231 213 253 252 206 270 230 254 197 308 253 235 237 294 357 37 45 325 355 327 219 136 200 4 12 303 209 182 186 256 278 238 293 194 116 111 144 172 174 178 180
209 74 108 203 151 104 223 221 228 171 239 203 246 289 279 260 254 288 265 288 272 313 299 319 42 64 272 13 1 339 222 194 190 193 178 217 245 136 131 170 178 184 184 185 186